This demonstration page uses our WeatherBlox Daily Observations layout. Learn more.

Left ArrowRight Arrow

34.74481, -87.66753

Hourly Observations for February 8, 2018

Temp ( °F °C ) Dew Point ( °F °C ) Humidity (%) Winds ( mph kmh ) Pressure ( in mb ) Visibility ( mi km ) Precip ( " mm )
12:53 am 00:53 Clear 31 -0.6 25 -3.9 79 79 N 7 11 30.48 1032 7 11 0.00 0.00
1:53 am 01:53 Clear 30 -1.1 24 -4.4 79 79 NE 6 9 30.46 1032 8 13 0.00 0.00
2:53 am 02:53 Partly Cloudy 30 -1.1 24 -4.4 79 79 NE 8 13 30.47 1032 7 11 0.00 0.00
3:21 am 03:21 Mostly Cloudy with Haze 30 -1.1 24 -4.4 79 79 NE 6 9 30.48 1032 6 10 0.00 0.00
3:53 am 03:53 Hazy 29 -1.7 24 -4.4 82 82 NNE 6 9 30.48 1032 6 10 0.00 0.00
4:53 am 04:53 Hazy 29 -1.7 23 -5 78 78 NE 6 9 30.48 1032 6 10 0.00 0.00
5:40 am 05:40 Mostly Cloudy 29 -1.7 23 -5 78 78 NE 8 13 30.53 1034 7 11 0.00 0.00
5:53 am 05:53 Mostly Cloudy 28 -2.2 23 -5 81 81 ENE 6 9 30.50 1033 7 11 0.00 0.00
6:01 am 06:01 Partly Cloudy 28 -2.2 23 -5 81 81 ENE 5 7 30.53 1034 7 11 0.00 0.00
6:48 am 06:48 Mostly Cloudy with Haze 28 -2 23 -5 80 80 NE 6 9 30.53 1034 6 10 0.00 0.00
6:53 am 06:53 Hazy 28 -2.2 23 -5 81 81 NE 3 6 30.52 1033 5 8 0.00 0.00
7:21 am 07:21 Mostly Cloudy with Haze 28 -2.2 23 -5 81 81 ENE 5 7 30.53 1034 5 8 0.00 0.00
7:53 am 07:53 Cloudy with Haze 29 -1.7 24 -4.4 82 82 ENE 6 9 30.52 1034 4 6 0.00 0.00
8:39 am 08:39 Hazy 30 -1.1 24 -4.4 79 79 NE 5 7 30.56 1035 5 8 0.00 0.00
8:53 am 08:53 Hazy 31 -0.6 25 -3.9 79 79 ENE 5 7 30.53 1034 5 8 0.00 0.00
9:53 am 09:53 Sunny 35 1.7 26 -3.3 70 70 E 7 11 30.55 1034 7 11 0.00 0.00
10:53 am 10:53 Sunny 38 3.3 27 -2.8 65 65 E 6 9 30.55 1035 8 13 0.00 0.00
11:53 am 11:53 Sunny 41 5 27 -2.8 57 57 E 5 7 30.52 1033 9 14 0.00 0.00
12:53 pm 12:53 Sunny 45 7.2 27 -2.8 49 49 VRB 6 9 30.48 1032 10 16 0.00 0.00
1:53 pm 13:53 Sunny 47 8.3 27 -2.8 46 46 ESE 6 9 30.46 1031 10 16 0.00 0.00
2:53 pm 14:53 Sunny 48 8.9 28 -2.2 46 46 SSW 5 7 30.45 1031 10 16 0.00 0.00
3:53 pm 15:53 Sunny 49 9.4 30 -1.1 48 48 VRB 6 9 30.45 1031 10 16 0.00 0.00
4:53 pm 16:53 Sunny 47 8.3 29 -1.7 50 50 S 7 11 30.43 1031 10 16 0.00 0.00
5:53 pm 17:53 Clear 44 6.7 27 -2.8 51 51 SSE 5 7 30.44 1031 10 16 0.00 0.00
6:53 pm 18:53 Clear 41 5 30 -1.1 65 65 Calm 30.44 1031 10 16 0.00 0.00
7:53 pm 19:53 Clear 37 2.8 31 -0.6 79 79 ESE 5 7 30.43 1031 10 16 0.00 0.00
8:53 pm 20:53 Clear 35 1.7 29 -1.7 78 78 Calm 30.43 1031 10 16 0.00 0.00
9:53 pm 21:53 Clear 34 1.1 29 -1.7 82 82 Calm 30.42 1030 10 16 0.00 0.00
10:53 pm 22:53 Clear 34 1.1 31 -0.6 89 89 Calm 30.40 1030 8 13 0.00 0.00
11:53 pm 23:53 Clear 33 0.6 29 -1.7 85 85 ESE 3 6 30.38 1029 10 16 0.00 0.00

Powered by AerisWeather